Simultaneous Nadir Overpasses (SNOs) Predictions

Prediction of SNOs between NOAA-19 and NPP Satellite Orbit:

Table of predicted SNOs for the next 14.0 days since TLE Epoch: 11/24/2012
Index Date (NOAA-19) Time (NOAA-19) NOAA-19 Lat,Lon Date (NPP) Time (NPP) NPP Lat,Lon Distance(km) Time Diff (sec)
1 11/27/2012 17:52:18 -80.80, 41.96 11/27/2012 17:53:23 -80.80, 41.88 1.49 65
2 11/27/2012 18:43:18 80.77,-150.30 11/27/2012 18:44:07 80.78,-150.43 2.25 49
3 11/27/2012 19:34:21 -80.76, 17.11 11/27/2012 19:34:51 -80.76, 17.17 1.00 30
4 11/27/2012 20:25:21 80.74,-175.15 11/27/2012 20:25:35 80.74,-175.14 0.20 14
5 11/27/2012 21:16:22 -80.69, -7.04 11/27/2012 21:16:18 -80.70, -7.21 3.11 4
6 11/27/2012 22:07:25 80.72, 159.65 11/27/2012 22:07:04 80.72, 159.79 2.58 21
7 11/27/2012 22:58:25
